Location: Geroldsau
(48.7259°N, 8.2466°E)
Time: 10:46:08
(UTC+00:00)

Cosmos 841 Rocket - Pass Details

Date: 20 June 2021
Orbit: 747 x 772 km, 74.0° (Epoch: 28 July)

Event Time Altitude Azimuth Distance (km) Brightness Sun altitude
Exits shadow 00:23:02 23° 159° (SSE) 1,551 4.6 -16.8°
Maximum altitude 00:25:43 41° 104° (ESE) 1,080 4.2 -16.7°
Drops below altitude 10° 00:30:30 10° 35° (NE) 2,274 7.1 -16.5°
Sets 00:32:58 0° 29° (NNE) 3,203 8.3 -16.4°
